| time (UTC) | temp F | wind direction | speed knots | gust knots | rain 1hr in | rain 24hr in | rain mn in | humidity % | barometer mb |
| 20260508033305 | 36 | 103 | 0.0 | 0.0 | 0.00 | 0.00 | 0.00 | 94 | 1017.4 |
| 20260508031804 | 36 | 103 | 0.0 | 0.9 | 0.00 | 0.00 | 0.00 | 94 | 1017.4 |
| 20260508030305 | 36 | 103 | 0.9 | 1.7 | 0.00 | 0.00 | 0.00 | 94 | 1017.5 |
| 20260508025805 | 36 | 103 | 0.9 | 0.9 | 0.00 | 0.00 | 0.00 | 94 | 1017.5 |
| 20260508025306 | 36 | 103 | 0.0 | 1.7 | 0.00 | 0.00 | 0.00 | 94 | 1017.5 |
| 20260508023805 | 36 | 103 | 0.9 | 0.9 | 0.00 | 0.00 | 0.00 | 94 | 1017.5 |
| 20260508023305 | 37 | 103 | 0.0 | 0.9 | 0.00 | 0.00 | 0.00 | 94 | 1017.4 |
| 20260508022307 | 37 | 103 | 0.0 | 1.7 | 0.00 | 0.00 | 0.00 | 94 | 1017.4 |
| 20260508021804 | 37 | 103 | 0.9 | 0.9 | 0.00 | 0.00 | 0.00 | 94 | 1017.4 |
| 20260508020804 | 37 | 103 | 0.9 | 1.7 | 0.00 | 0.00 | 0.00 | 94 | 1017.4 |
| 20260508020305 | 37 | 103 | 0.9 | 1.7 | 0.00 | 0.00 | 0.00 | 94 | 1017.4 |
| 20260508015306 | 37 | 103 | 0.0 | 1.7 | 0.00 | 0.00 | 0.00 | 94 | 1017.4 |
| 20260508014804 | 37 | 103 | 0.9 | 1.7 | 0.00 | 0.00 | 0.00 | 94 | 1017.4 |
| 20260508012805 | 38 | 103 | 0.9 | 1.7 | 0.00 | 0.00 | 0.00 | 93 | 1017.3 |
| 20260508011804 | 38 | 103 | 0.0 | 0.9 | 0.00 | 0.00 | 0.00 | 93 | 1017.5 |
| 20260508011305 | 38 | 103 | 0.0 | 1.7 | 0.00 | 0.00 | 0.00 | 93 | 1017.5 |
| 20260508010804 | 38 | 103 | 0.9 | 1.7 | 0.00 | 0.00 | 0.00 | 93 | 1017.5 |
| 20260508010305 | 38 | 103 | 0.9 | 0.9 | 0.00 | 0.00 | 0.00 | 93 | 1017.5 |
| 20260508005306 | 39 | 103 | 0.0 | 1.7 | 0.00 | 0.00 | 0.00 | 93 | 1017.3 |
| 20260508004804 | 39 | 103 | 0.0 | 0.9 | 0.00 | 0.00 | 0.00 | 93 | 1017.3 |
| 20260508003804 | 40 | 103 | 0.0 | 1.7 | 0.00 | 0.00 | 0.00 | 93 | 1017.4 |
| 20260508003304 | 40 | 103 | 0.9 | 1.7 | 0.00 | 0.00 | 0.00 | 93 | 1017.5 |
| 20260508002306 | 40 | 103 | 0.9 | 1.7 | 0.00 | 0.00 | 0.00 | 92 | 1017.5 |
| 20260508000305 | 41 | 103 | 0.0 | 1.7 | 0.00 | 0.00 | 0.00 | 92 | 1017.6 |
| 20260507235306 | 42 | 103 | 0.9 | 1.7 | 0.00 | 0.00 | 0.00 | 92 | 1017.6 |
| 20260507234805 | 42 | 103 | 0.9 | 1.7 | 0.00 | 0.00 | 0.00 | 92 | 1017.7 |
| 20260507233304 | 42 | 103 | 0.0 | 0.9 | 0.00 | 0.00 | 0.00 | 92 | 1017.7 |
| 20260507232306 | 43 | 103 | 0.9 | 1.7 | 0.00 | 0.00 | 0.00 | 91 | 1017.7 |
| 20260507231805 | 43 | 103 | 0.0 | 0.0 | 0.00 | 0.00 | 0.00 | 91 | 1017.7 |
| 20260507230824 | 44 | 106 | 0.0 | 0.9 | 0.00 | 0.00 | 0.00 | 91 | 1017.6 |
| 20260507225306 | 51 | 106 | 1.7 | 1.7 | 0.00 | 0.00 | 0.00 | 83 | 1017.3 |
| 20260507224804 | 51 | 106 | 1.7 | 1.7 | 0.00 | 0.00 | 0.00 | 83 | 1017.3 |
| 20260507222805 | 51 | 106 | 1.7 | 1.7 | 0.00 | 0.00 | 0.00 | 83 | 1017.3 |
| 20260507220305 | 51 | 106 | 1.7 | 1.7 | 0.00 | 0.00 | 0.00 | 83 | 1017.3 |
| 20260507215806 | 51 | 106 | 1.7 | 1.7 | 0.00 | 0.00 | 0.00 | 83 | 1017.3 |
| 20260507215306 | 51 | 106 | 1.7 | 1.7 | 0.00 | 0.00 | 0.00 | 83 | 1017.3 |
| 20260507214804 | 51 | 106 | 1.7 | 1.7 | 0.00 | 0.00 | 0.00 | 83 | 1017.3 |
| 20260507213804 | 51 | 106 | 1.7 | 1.7 | 0.00 | 0.00 | 0.00 | 83 | 1017.3 |
| 20260507213304 | 51 | 106 | 1.7 | 1.7 | 0.00 | 0.00 | 0.00 | 83 | 1017.3 |
| 20260507212804 | 51 | 106 | 1.7 | 1.7 | 0.00 | 0.00 | 0.00 | 83 | 1017.3 |
| 20260507212307 | 51 | 106 | 1.7 | 1.7 | 0.00 | 0.00 | 0.00 | 83 | 1017.3 |
| 20260507210304 | 51 | 106 | 1.7 | 1.7 | 0.00 | 0.00 | 0.00 | 83 | 1017.3 |
| 20260507205804 | 51 | 106 | 1.7 | 1.7 | 0.00 | 0.00 | 0.00 | 83 | 1017.3 |
| 20260507204804 | 51 | 106 | 1.7 | 1.7 | 0.00 | 0.00 | 0.00 | 83 | 1017.3 |
| 20260507203304 | 51 | 106 | 1.7 | 1.7 | 0.00 | 0.00 | 0.00 | 83 | 1017.3 |
| 20260507201804 | 51 | 106 | 1.7 | 1.7 | 0.00 | 0.00 | 0.00 | 83 | 1017.3 |
| 20260507201306 | 51 | 106 | 1.7 | 1.7 | 0.00 | 0.00 | 0.00 | 83 | 1017.3 |
| 20260507195306 | 52 | 121 | 1.7 | 4.3 | 0.00 | 0.00 | 0.00 | 83 | 1017.1 |
| 20260507194805 | 52 | 120 | 3.5 | 8.7 | 0.00 | 0.00 | 0.00 | 83 | 1017.1 |
| 20260507193804 | 52 | 129 | 4.3 | 7.0 | 0.00 | 0.00 | 0.00 | 83 | 1017.0 |
| 20260507193305 | 52 | 113 | 4.3 | 7.8 | 0.00 | 0.00 | 0.00 | 83 | 1017.1 |
| 20260507192804 | 52 | 121 | 2.6 | 7.0 | 0.00 | 0.00 | 0.00 | 83 | 1017.0 |
| 20260507191304 | 53 | 133 | 4.3 | 7.8 | 0.00 | 0.00 | 0.00 | 82 | 1017.1 |
| 20260507190804 | 53 | 131 | 5.2 | 8.7 | 0.00 | 0.00 | 0.00 | 81 | 1016.9 |
| 20260507184304 | 54 | 108 | 4.3 | 7.0 | 0.00 | 0.00 | 0.00 | 79 | 1016.9 |
| 20260507183804 | 54 | 123 | 5.2 | 10.4 | 0.00 | 0.00 | 0.00 | 79 | 1016.9 |
| 20260507182804 | 54 | 135 | 7.0 | 12.2 | 0.00 | 0.00 | 0.00 | 79 | 1016.8 |
| 20260507182306 | 54 | 130 | 7.0 | 10.4 | 0.00 | 0.00 | 0.00 | 79 | 1016.8 |
| 20260507175805 | 54 | 127 | 1.7 | 8.7 | 0.00 | 0.00 | 0.00 | 79 | 1016.5 |
| 20260507175307 | 54 | 136 | 5.2 | 8.7 | 0.00 | 0.00 | 0.00 | 79 | 1016.5 |
| 20260507174805 | 55 | 120 | 4.3 | 7.8 | 0.00 | 0.00 | 0.00 | 78 | 1016.4 |
| 20260507174304 | 55 | 139 | 4.3 | 10.4 | 0.00 | 0.00 | 0.00 | 78 | 1016.4 |
| 20260507173804 | 55 | 135 | 6.1 | 13.0 | 0.00 | 0.00 | 0.00 | 77 | 1016.4 |
| 20260507172804 | 55 | 127 | 2.6 | 7.8 | 0.00 | 0.00 | 0.00 | 76 | 1016.4 |
| 20260507172307 | 55 | 140 | 2.6 | 7.8 | 0.00 | 0.00 | 0.00 | 76 | 1016.4 |
| 20260507171304 | 55 | 143 | 2.6 | 6.1 | 0.00 | 0.00 | 0.00 | 76 | 1016.4 |
| 20260507170804 | 55 | 123 | 2.6 | 7.0 | 0.00 | 0.00 | 0.00 | 75 | 1016.4 |
| 20260507170304 | 55 | 159 | 4.3 | 7.0 | 0.00 | 0.00 | 0.00 | 75 | 1016.4 |
| 20260507165306 | 55 | 140 | 4.3 | 7.8 | 0.00 | 0.00 | 0.00 | 75 | 1016.4 |
| 20260507164304 | 56 | 123 | 1.7 | 5.2 | 0.00 | 0.00 | 0.00 | 74 | 1016.4 |
| 20260507163804 | 56 | 123 | 3.5 | 7.0 | 0.00 | 0.00 | 0.00 | 74 | 1016.4 |
| 20260507162307 | 56 | 135 | 5.2 | 8.7 | 0.00 | 0.00 | 0.00 | 74 | 1016.4 |
| 20260507161804 | 56 | 127 | 4.3 | 7.0 | 0.00 | 0.00 | 0.00 | 74 | 1016.4 |
| 20260507160803 | 56 | 135 | 5.2 | 8.7 | 0.00 | 0.00 | 0.00 | 74 | 1016.5 |
| 20260507155804 | 56 | 150 | 5.2 | 7.8 | 0.00 | 0.00 | 0.00 | 74 | 1016.5 |
| 20260507154804 | 57 | 140 | 1.7 | 7.0 | 0.00 | 0.00 | 0.00 | 74 | 1016.5 |
| 20260507154304 | 57 | 143 | 2.6 | 7.0 | 0.00 | 0.00 | 0.00 | 73 | 1016.4 |
| 20260507153304 | 57 | 179 | 3.5 | 7.8 | 0.00 | 0.00 | 0.00 | 72 | 1016.5 |
| 20260507152306 | 57 | 348 | 1.7 | 2.6 | 0.00 | 0.00 | 0.00 | 68 | 1016.5 |
| 20260507145804 | 57 | 38 | 0.9 | 2.6 | 0.00 | 0.00 | 0.00 | 70 | 1016.5 |
| 20260507144804 | 57 | 48 | 2.6 | 5.2 | 0.00 | 0.00 | 0.00 | 72 | 1016.5 |
| 20260507144303 | 57 | 36 | 1.7 | 4.3 | 0.00 | 0.00 | 0.00 | 71 | 1016.5 |
| 20260507142804 | 57 | 32 | 0.9 | 4.3 | 0.00 | 0.00 | 0.00 | 68 | 1016.6 |
| 20260507142306 | 57 | 44 | 1.7 | 4.3 | 0.00 | 0.00 | 0.00 | 72 | 1016.6 |
| 20260507135306 | 56 | 36 | 0.9 | 2.6 | 0.00 | 0.00 | 0.00 | 72 | 1016.8 |
| 20260507134804 | 56 | 55 | 0.9 | 2.6 | 0.00 | 0.00 | 0.00 | 72 | 1016.9 |
| 20260507134305 | 56 | 50 | 0.9 | 2.6 | 0.00 | 0.00 | 0.00 | 72 | 1016.8 |
| 20260507133304 | 56 | 78 | 2.6 | 5.2 | 0.00 | 0.00 | 0.00 | 72 | 1016.8 |
| 20260507132307 | 56 | 98 | 2.6 | 7.0 | 0.00 | 0.00 | 0.00 | 70 | 1016.8 |
| 20260507131804 | 56 | 68 | 1.7 | 5.2 | 0.00 | 0.00 | 0.00 | 70 | 1016.9 |
| 20260507130304 | 57 | 54 | 2.6 | 5.2 | 0.00 | 0.00 | 0.00 | 71 | 1016.9 |
| 20260507124804 | 56 | 68 | 2.6 | 7.0 | 0.00 | 0.00 | 0.00 | 71 | 1016.9 |
| 20260507123804 | 57 | 119 | 4.3 | 11.3 | 0.00 | 0.00 | 0.00 | 71 | 1016.9 |
| 20260507122803 | 58 | 57 | 2.6 | 8.7 | 0.00 | 0.00 | 0.00 | 70 | 1016.9 |
| 20260507121804 | 57 | 98 | 1.7 | 5.2 | 0.00 | 0.00 | 0.00 | 71 | 1017.0 |
| 20260507121304 | 56 | 116 | 2.6 | 6.1 | 0.00 | 0.00 | 0.00 | 71 | 1017.1 |
| 20260507120804 | 56 | 109 | 4.3 | 7.0 | 0.00 | 0.00 | 0.00 | 72 | 1017.1 |
| 20260507115804 | 56 | 105 | 5.2 | 11.3 | 0.00 | 0.00 | 0.00 | 72 | 1017.0 |
| 20260507115307 | 56 | 48 | 2.6 | 8.7 | 0.00 | 0.00 | 0.00 | 72 | 1017.1 |
| 20260507112306 | 55 | 121 | 2.6 | 7.8 | 0.00 | 0.00 | 0.00 | 70 | 1017.1 |
| 20260507111805 | 55 | 88 | 1.7 | 6.1 | 0.00 | 0.00 | 0.00 | 73 | 1017.2 |
| 20260507110805 | 56 | 103 | 4.3 | 7.8 | 0.00 | 0.00 | 0.00 | 73 | 1017.2 |
| 20260507104806 | 55 | 82 | 2.6 | 6.1 | 0.00 | 0.00 | 0.00 | 76 | 1017.3 |
| 20260507101805 | 54 | 99 | 3.5 | 7.0 | 0.00 | 0.00 | 0.00 | 74 | 1017.5 |
| 20260507101305 | 54 | 110 | 1.7 | 6.1 | 0.00 | 0.00 | 0.00 | 75 | 1017.5 |
| 20260507094806 | 55 | 97 | 1.7 | 4.3 | 0.00 | 0.00 | 0.00 | 76 | 1017.4 |
| 20260507093805 | 54 | 85 | 2.6 | 4.3 | 0.00 | 0.00 | 0.00 | 74 | 1017.5 |
| 20260507092805 | 55 | 64 | 0.9 | 2.6 | 0.00 | 0.00 | 0.00 | 76 | 1017.4 |
| 20260507092307 | 55 | 149 | 1.7 | 4.3 | 0.00 | 0.00 | 0.00 | 75 | 1017.3 |
| 20260507091305 | 56 | 97 | 4.3 | 7.0 | 0.00 | 0.00 | 0.00 | 73 | 1017.4 |
| 20260507090805 | 56 | 76 | 2.6 | 4.3 | 0.00 | 0.00 | 0.00 | 75 | 1017.4 |
| 20260507090305 | 53 | 41 | 1.7 | 2.6 | 0.00 | 0.00 | 0.00 | 79 | 1017.4 |
| 20260507085807 | 53 | 74 | 1.7 | 2.6 | 0.00 | 0.00 | 0.00 | 79 | 1017.4 |
| 20260507083806 | 53 | 124 | 1.7 | 4.3 | 0.00 | 0.00 | 0.00 | 76 | 1017.4 |
| 20260507083305 | 53 | 353 | 0.9 | 1.7 | 0.00 | 0.00 | 0.00 | 80 | 1017.5 |
| 20260507082805 | 53 | 89 | 1.7 | 2.6 | 0.00 | 0.00 | 0.00 | 81 | 1017.5 |
| 20260507081805 | 51 | 80 | 1.7 | 2.6 | 0.00 | 0.00 | 0.00 | 81 | 1017.5 |
| 20260507080805 | 51 | 94 | 1.7 | 2.6 | 0.00 | 0.00 | 0.00 | 82 | 1017.5 |
| 20260507074805 | 51 | 123 | 4.3 | 6.1 | 0.00 | 0.00 | 0.00 | 84 | 1017.4 |
| 20260507070805 | 47 | 105 | 1.7 | 2.6 | 0.00 | 0.00 | 0.00 | 94 | 1017.3 |
| 20260507065805 | 47 | 111 | 1.7 | 2.6 | 0.00 | 0.00 | 0.00 | 95 | 1017.2 |
| 20260507065306 | 46 | 118 | 1.7 | 2.6 | 0.00 | 0.00 | 0.00 | 96 | 1017.2 |
| 20260507064805 | 46 | 69 | 0.9 | 1.7 | 0.00 | 0.00 | 0.00 | 96 | 1017.2 |
| 20260507063805 | 46 | 6 | 0.9 | 0.9 | 0.00 | 0.00 | 0.00 | 97 | 1017.1 |
| 20260507062306 | 45 | 339 | 0.0 | 0.0 | 0.00 | 0.00 | 0.00 | 97 | 1017.1 |
| 20260507061804 | 45 | 339 | 0.0 | 0.0 | 0.00 | 0.00 | 0.00 | 97 | 1017.2 |
| 20260507061304 | 44 | 339 | 0.0 | 0.0 | 0.00 | 0.00 | 0.00 | 97 | 1017.1 |
| 20260507060305 | 44 | 339 | 0.0 | 0.9 | 0.00 | 0.00 | 0.00 | 97 | 1017.0 |
| 20260507055306 | 43 | 339 | 0.0 | 1.7 | 0.00 | 0.00 | 0.00 | 97 | 1016.9 |
| 20260507054805 | 43 | 339 | 0.0 | 0.0 | 0.00 | 0.00 | 0.00 | 97 | 1016.7 |
| 20260507053305 | 42 | 28 | 0.0 | 0.0 | 0.00 | 0.00 | 0.00 | 97 | 1016.7 |
| 20260507052306 | 42 | 28 | 0.0 | 0.0 | 0.00 | 0.00 | 0.00 | 96 | 1016.6 |
| 20260507051805 | 42 | 28 | 0.0 | 0.0 | 0.00 | 0.00 | 0.00 | 96 | 1016.6 |
| 20260507045306 | 42 | 28 | 0.0 | 0.0 | 0.00 | 0.00 | 0.00 | 96 | 1016.5 |
| 20260507043805 | 42 | 28 | 0.0 | 0.9 | 0.00 | 0.00 | 0.00 | 96 | 1016.4 |
| 20260507043305 | 42 | 28 | 0.0 | 1.7 | 0.00 | 0.00 | 0.00 | 96 | 1016.4 |
| 20260507041305 | 42 | 28 | 0.9 | 1.7 | 0.00 | 0.00 | 0.00 | 96 | 1016.2 |
| 20260507040805 | 42 | 28 | 0.0 | 1.7 | 0.00 | 0.00 | 0.00 | 96 | 1016.2 |
| 20260507040305 | 42 | 28 | 0.0 | 0.0 | 0.00 | 0.00 | 0.00 | 96 | 1016.2 |
| 20260507034305 | 43 | 28 | 0.0 | 0.0 | 0.00 | 0.00 | 0.00 | 96 | 1016.1 |